Погода Родино

Погода Родино : погода сейчас, прогноз погоды и архив. Всё, что Вы хотите узнать о погоде Родино!

Поиск расширенной информации на нашем сайте:

Другие новости

Новости СМИ2

Главная страница сайта

Новости сайта

03.07.2017

Напоминаем, что на нашем специализированном сайте Метеоцентр.Азия вы можете получить высокодетализированные автоматические прогнозы погоды по пунктам России, СНГ и мира в авиационном формате (включающие направление и скорость ветра, видимость, явления погоды, количество и форму облачности, нижнюю и верхнюю границу облачности).

Рекомендуем: бани сауны екатеринбурга

Погода Родино - сегодня

Время (UTC), дата Ветер
(°,м/с) 
Видим.   Явления Облачность Т
(°С)
Тd
(°С)
f(%) Тe
(°С)
Pmin
(гПа)
dP
(гПа)
Po
(мм)
O2
(г/м3)
Тmin Tmax R s Состояние
почвы
18 08.12.17 080 (В) 20000 м    4/0 верхняя 
[Ci sp]
-15 -16.2 91 -20  1028  -1.6  755  323           
21 08.12.17 080 (В) 20000 м    3/0 верхняя 
[Ci sp]
-15 -16.5 88 -20  1026.7  -1.3  754  323           
00 09.12.17 070 (В) 20000 м    3/0 верхняя 
[Ci sp]
-15.7 -17.4 87 -21  1024.5  -2.2  752  323  -16.4      равномерный
сухой снег
100% 
06 09.12.17 080 (В) 20000 м    5/0 верхняя 
[Cc]
-10.6 -13.9 77 -12  1022.2  -1.2  751  316           
09 09.12.17 140 (ЮВ) 20000 м    8/0 средняя, верхняя 
[Ac trans|Ci sp]
-7.9 -13.8 63 -9  1023.6  1.5  752  313           
12 09.12.17 100 (В) 4000 м  дым  9/4 300 м кучево-дожд., средняя 
[Cb cap|Ac trans]
-9.5 -12.9 76 -11  1022.1  -1.6  751  315    -5.9       
15 09.12.17 160 (Ю) 20000 м    10/10 480 м кучево-дожд. 
[Cb cap]
-3.4 -8.6 67 -6  1020.2  -1.4  750  307           
18 09.12.17 200 (Ю) 20000 м    10/10 480 м кучево-дожд. 
[Cb cap]
-2.8 -5.6 81 -5  1022.3  2.2  752  307           
21 09.12.17 160 (Ю) 20000 м    10/10 450 м кучево-дожд. 
[Cb cap]
-3.5 -4.5 93 -6  1023  0.6  752  307           
00 10.12.17 130 (ЮВ) 20000 м    10/10 450 м кучево-дожд. 
[Cb cap]
-1.6 -3.2 89 -4  1022.1  -0.8  751  305  -9.5      равномерный
сухой снег
100% 
03 10.12.17 130 (ЮВ) 20000 м    10/10 450 м кучево-дожд. 
[Cb cap]
-1.1 -2.6 90 -2  1022.7  0.6  752  304           
06 10.12.17 130 (ЮВ) 4000 м  слаб. ливневой снег  10/10 450 м кучево-дожд. 
[Cb cap]
-1 -2.2 92 -4  1020.9  -1.8  751  304           
12 10.12.17 200 (Ю) 6{13}  20000 м  позёмок{ливн. осадки}  8/3 300 м кучево-дожд., средняя, верхняя 
[Cb cap|Ac trans|Ci sp]
-5.4 -9 76 -10  1025.3  2.4  754  311    -0.5     
18 10.12.17 170 (Ю) 5{14}  20000 м    5/0 средняя 
[Ac trans]
-7.7 -11.1 77 -12  1026.9  755  314           
21 10.12.17 160 (Ю) 20000 м    6/3 300 м кучево-дожд., верхняя 
[Cb cap|Ci sp]
-9.9 -12.4 82 -15  1027.4  0.3  755  317           
00 11.12.17 160 (Ю) 20000 м    9/9 300 м кучево-дожд. 
[Cb cap]
-8.1 -11 80 -12  1026.3  -1  754  314  -10.1      11  неравномерный
сухой снег
100% 
06 11.12.17 190 (Ю) 20000 м  в посл. час ливневой снег  9/9 300 м кучево-дожд. 
[Cb cap]
-6.2 -8.4 84 -10  1023.6  -0.4  752  311           
09 11.12.17 140 (ЮВ) 20000 м    9/5 300 м кучево-дожд., средняя, верхняя 
[Cb cap|Ac trans|Ci sp]
-7.9 -9.9 86 -9  1023.2  -0.6  752  313           
12 11.12.17 140 (ЮВ) 20000 м    10/10 480 м кучево-дожд. 
[Cb cap]
-7.5 -9.1 88 -10  1023.3  0.2  752  313    -6.2  0.2     
18 11.12.17 160 (Ю) 20000 м  {ливн. осадки}  8/4 300 м кучево-дожд., средняя, верхняя 
[Cb cap|Ac trans|Ci sp]
-12.4 -13.6 91 -14  1025.4  0.9  753  319           
00 12.12.17 160 (Ю) 20000 м  {ливн. осадки}  8/4 300 м кучево-дожд., верхняя 
[Cb cap|Ci sp]
-13.2 -14.4 91 -15  1026.7  0.2  754  321  -13.7    15  равномерный
сухой снег
100% 
06 12.12.17 170 (Ю) 20000 м  {ливн. осадки}  8/8 300 м кучево-дожд. 
[Cb cap]
-11.8 -13.7 86 -14  1029.2  1.5  756  320           
09 12.12.17 170 (Ю) 20000 м    8/0 кучево-дожд., верхняя 
[Cb cap|Ci fib]
-12.6 -14.7 84 -13  1031.4  2.1  758  321           
12 12.12.17 тихо ()   20000 м    3/0 верхняя 
[Ci fib]
-22.4 -24.6 82 -22  1034.5  2.3  759  335    -11.6  0.2     
15 12.12.17 180 (Ю) 1000 м  дымка  ясно 
-23.1 -25.4 81 -24  1037.4  2.7  761  337           
Время (UTC), дата Ветер
(°,м/с) 
Видим.   Явления Облачность Т
(°С)
Тd
(°С)
f(%) Тe
(°С)
Pmin
(гПа)
dP
(гПа)
Po
(мм)
O2
(г/м3)
Тmin Tmax R s Состояние
почвы

Для получения пояснительной информации подведите курсор к названию столбца.

ПОГОДА Родино - архив

Всё, что Вы хотите узнать о погоде Родино - удобно и подробно!

Выберите нужную дату (начиная с 1 января 2015* года) и нажмите кнопку "Найти".
Будут отображены архивные сводки погоды по пункту Родино, начиная с указанной даты.


Отображать данные в формате CSV (для использования в таблицах Excel)


Внимание! Наш архив погоды предназначен исключительно для личного некоммерческого использования в познавательных целях. Если Вам необходимы официальные справки о состоянии погоды (для производственных, юридических, коммерческих и т.п. целей), обращайтесь в органы Росгидромета.

*Примечание: данная дата относится к архиву по метеостанциям СССР (Россия, СНГ, Балтия).
Архив по метеостанциям Зарубежной Европы и Азии (кроме Китая) хранится 10 дней, по другим регионам земного шара (Китай, Африка, Америка, Австралия, Океания) - 1 день.

Родино - район местоположения метеостанции


Название, широта, долгота, высота метеостанции:
Родино 52.5°ш. 80.2°д. 59 м над ур. моря [Российская Федерация]

Дополнительная информация

В oтличие oт бoльшинства пoгoдных сайтoв мы публикуем пoдрoбную метеoинфoрмацию в детальнoм прoфессиoнальнoм фoрмате.

Характеристики температуры и влажнoсти вoздуха измеряются на высoте 2 м в тени вдали oт зданий и деревьев.
Скoрoсть ветра измеряется на высoте 10 м (на урoвне рoста челoвека скoрoсть ветра ниже в 1.5-2 раза). Если метеoстанция нахoдится в гoрoде или в лесу, тo скoрoсть ветра занижена на 2-4 м/с пo сравнению с oткрытым местoм. Скoрoсть ветра над акватoриями крупных рек и oзёр, а также на вершинах хoлмoв на 2-5 м/с выше, чем в oбычных услoвиях.
Атмoсфернoе давление в разных тoчках местнoсти мoжет значительнo oтличаться oт давления на метеoстанции, в зависимoсти oт услoвий рельефа (при пoдъёме на 10 м давление пoнижается примернo на 1 мм рт.ст.).